Weather History for Winner, SD

Change the Weather History Date:

Wednesday, May 23, 2012

  Actual Average Record
Temperature  
Mean Temperature 63 °F 60 °F  
Max Temperature 73 °F 72 °F 74 °F (2011)
Min Temperature 53 °F 49 °F 40 °F (2013)
Degree Days  
Heating Degree Days 2 6  
Month to date heating degree days 104 204  
Since 1 July heating degree days 5219 6608  
Cooling Degree Days 0 1  
Month to date cooling degree days 54 18  
Year to date cooling degree days 93 20  
Growing Degree Days 14 (Base 50)    
Moisture  
Dew Point 51 °F    
Average Humidity 59    
Maximum Humidity 83    
Minimum Humidity 35    
Precipitation  
Precipitation 0.01 in 0.10 in 0.57 in (2008)
Month to date precipitation 1.44 2.42  
Year to date precipitation 5.52 7.05  
Sea Level Pressure  
Sea Level Pressure 29.52 in    
Wind  
Wind Speed 10 mph (NW)    
Max Wind Speed 22 mph    
Max Gust Speed 28 mph    
Visibility 10 miles    
Events Rain    
T = Trace of Precipitation, MM = Missing Value Source: NWS Daily Summary

Daily Weather History Graph

Daily Weather History Graph

Search for Another Location

Airport:

Trip Planner

Search our weather history database for the weather conditions in past years. The results will help you decide how hot, cold, wet, or windy it might be!

Date:

Astronomy

May. 23, 2012 Rise Set
Actual Time 6:07 AM CDT 9:05 PM CDT
Civil Twilight 5:33 AM CDT 9:39 PM CDT
Nautical Twilight 4:50 AM CDT 10:23 PM CDT
Astronomical Twilight 3:59 AM CDT 11:14 PM CDT
Moon 8:11 AM CDT 11:27 PM CDT
Length of Visible Light 16h 06m
Length of Day
14h 58m
Waxing Crescent, 7% of the Moon is Illuminated
May 23
Waxing Crescent
May 28
First Quarter
Jun 4
Full
Jun 11
Last Quarter
Jun 19
New

Hourly Weather History & Observations

Time (CDT) Temp. Dew Point Humidity Pressure Visibility Wind Dir Wind Speed Gust Speed Precip Events Conditions
12:37 AM 71.6 °F 57.2 °F 60% 29.48 in 8.0 mi WNW 19.6 mph 28.8 mph 0.02 in Rain Light Rain
12:49 AM 71.6 °F 57.2 °F 60% 29.49 in 10.0 mi West 15.0 mph 24.2 mph 0.02 in   Scattered Clouds
12:53 AM 71.1 °F 57.0 °F 61% 29.44 in 10.0 mi WNW 11.5 mph 27.6 mph 0.02 in   Mostly Cloudy
1:53 AM 68.0 °F 57.0 °F 68% 29.47 in 10.0 mi NW 10.4 mph - 0.01 in   Overcast
3:53 AM 62.1 °F 54.0 °F 75% 29.45 in 10.0 mi NW 6.9 mph - N/A   Clear
4:53 AM 61.0 °F 54.0 °F 78% 29.47 in 10.0 mi NW 5.8 mph - N/A   Clear
5:53 AM 59.0 °F 54.0 °F 83% 29.49 in 10.0 mi WNW 9.2 mph - N/A   Clear
6:53 AM 60.1 °F 54.0 °F 80% 29.49 in 10.0 mi WNW 8.1 mph - N/A   Clear
7:53 AM 62.1 °F 53.1 °F 72% 29.49 in 10.0 mi NW 11.5 mph - N/A   Clear
8:53 AM 62.1 °F 54.0 °F 75% 29.51 in 10.0 mi NW 6.9 mph - N/A   Overcast
9:53 AM 64.0 °F 53.1 °F 67% 29.52 in 10.0 mi NW 16.1 mph - N/A   Overcast
10:53 AM 64.9 °F 52.0 °F 63% 29.52 in 10.0 mi NNW 12.7 mph - N/A   Overcast
11:53 AM 64.9 °F 50.0 °F 58% 29.52 in 10.0 mi NNW 13.8 mph 21.9 mph N/A   Mostly Cloudy
12:53 PM 66.0 °F 50.0 °F 56% 29.52 in 10.0 mi NNW 13.8 mph - N/A   Overcast
1:53 PM 66.0 °F 48.9 °F 54% 29.55 in 10.0 mi NW 12.7 mph - N/A   Overcast
2:53 PM 71.1 °F 46.9 °F 42% 29.53 in 10.0 mi NNW 16.1 mph - N/A   Mostly Cloudy
3:53 PM 70.0 °F 42.1 °F 36% 29.54 in 10.0 mi NNW 17.3 mph - N/A   Mostly Cloudy
4:53 PM 73.0 °F 44.1 °F 35% 29.55 in 10.0 mi NNW 19.6 mph - N/A   Mostly Cloudy
5:53 PM 64.9 °F 43.0 °F 45% 29.56 in 10.0 mi North 13.8 mph - N/A   Overcast
6:53 PM 62.1 °F 48.0 °F 60% 29.57 in 10.0 mi NW 4.6 mph - N/A   Partly Cloudy
7:53 PM 62.1 °F 48.9 °F 62% 29.57 in 10.0 mi NW 5.8 mph - N/A   Clear
9:53 PM 60.1 °F 48.9 °F 67% 29.54 in 10.0 mi Calm Calm - N/A   Clear
10:53 PM 55.0 °F 48.9 °F 80% 29.55 in 10.0 mi WSW 6.9 mph - N/A   Clear
11:53 PM 54.0 °F 48.9 °F 83% 29.57 in 10.0 mi West 6.9 mph - N/A   Clear